DAOL

Tafaraoui Airport

Airport
ICAO code
DAOL
IATA Code
TAF
Summary
ICAO Region
AFI
ICAO Territory
Location

, Oran

Serving
Oran
Elevation
367 ft
Coordinates
35° 32' 33" N , 0° 31' 56" W
Metar
DAOL 191300Z 03020KT 8000 NSC 22/08 Q1018

Runways

Designator Length Width Surface Rops
8/26 2754 43 ASP No/No

Airport map

Aerial View

SKYbrary Partners:

Safety knowledge contributed by: